Year,Month,Day,Hour,Minute,Value (Times are PST for temperature in C)
2007,01,30,00,00,0.20
2007,01,30,00,01,0.20
2007,01,30,00,02,0.10
2007,01,30,00,03,0.10
2007,01,30,00,04,0.00
2007,01,30,00,05,-0.10
2007,01,30,00,06,-0.10
2007,01,30,00,07,-0.10
2007,01,30,00,08,-0.20
2007,01,30,00,09,-0.20
2007,01,30,00,10,-0.30
2007,01,30,00,11,-0.30
2007,01,30,00,12,-0.40
2007,01,30,00,13,-0.40
2007,01,30,01,02,-1.00
2007,01,30,01,03,-0.90
2007,01,30,01,04,-0.90
2007,01,30,01,05,-0.90
2007,01,30,01,06,-0.90
2007,01,30,01,07,-0.90
2007,01,30,01,08,-0.90
2007,01,30,01,09,-0.90
2007,01,30,01,10,-0.90
2007,01,30,01,11,-0.80
2007,01,30,01,12,-0.80
2007,01,30,01,13,-0.80
2007,01,30,01,14,-0.80
2007,01,30,01,15,-0.80
2007,01,30,01,16,-0.80
2007,01,30,01,17,-0.80
2007,01,30,01,18,-0.80
2007,01,30,01,19,-0.80
2007,01,30,01,20,-0.80
2007,01,30,01,21,-0.80
2007,01,30,01,22,-0.90
2007,01,30,01,23,-0.90
2007,01,30,01,24,-0.90
2007,01,30,01,25,-0.90
2007,01,30,01,26,-0.90
2007,01,30,01,27,-0.90
2007,01,30,01,28,-0.90
2007,01,30,01,29,-1.00
2007,01,30,01,30,-1.00
2007,01,30,01,31,-1.00
2007,01,30,01,32,-1.00
2007,01,30,01,33,-1.10
2007,01,30,01,34,-1.10
2007,01,30,01,35,-1.10
2007,01,30,01,36,-1.10
2007,01,30,01,37,-1.10
2007,01,30,01,38,-1.10
2007,01,30,01,39,-1.10
2007,01,30,01,40,-1.10
2007,01,30,01,41,-1.20
2007,01,30,01,42,-1.20
2007,01,30,01,43,-1.20
2007,01,30,01,44,-1.20
2007,01,30,01,45,-1.20
2007,01,30,01,46,-1.20
2007,01,30,01,47,-1.20
2007,01,30,01,48,-1.20
2007,01,30,01,49,-1.30
2007,01,30,01,50,-1.30
2007,01,30,01,51,-1.30
2007,01,30,01,52,-1.30
2007,01,30,01,53,-1.30
2007,01,30,01,54,-1.30
2007,01,30,01,55,-1.30
2007,01,30,01,56,-1.30
2007,01,30,01,57,-1.30
2007,01,30,01,58,-1.30
2007,01,30,01,59,-1.30
2007,01,30,02,00,-1.30
2007,01,30,02,01,-1.30
2007,01,30,02,02,-1.30
2007,01,30,02,03,-1.30
2007,01,30,02,04,-1.40
2007,01,30,02,05,-1.40
2007,01,30,02,06,-1.40
2007,01,30,02,07,-1.40
2007,01,30,02,08,-1.40
2007,01,30,02,09,-1.40
2007,01,30,02,10,-1.40
2007,01,30,02,11,-1.40
2007,01,30,02,12,-1.40
2007,01,30,02,13,-1.40
2007,01,30,02,14,-1.30
2007,01,30,02,15,-1.40
2007,01,30,02,16,-1.40
2007,01,30,02,17,-1.30
2007,01,30,02,18,-1.40
2007,01,30,02,19,-1.30
2007,01,30,02,20,-1.30
2007,01,30,02,21,-1.40
2007,01,30,02,22,-1.40
2007,01,30,02,23,-1.40
2007,01,30,02,24,-1.40
2007,01,30,02,25,-1.40
2007,01,30,02,26,-1.40
2007,01,30,02,27,-1.40
2007,01,30,02,28,-1.40
2007,01,30,02,29,-1.30
2007,01,30,02,30,-1.30
2007,01,30,02,31,-1.30
2007,01,30,02,32,-1.30
2007,01,30,02,33,-1.30
2007,01,30,02,34,-1.30
2007,01,30,02,35,-1.30
2007,01,30,02,36,-1.30
2007,01,30,02,37,-1.30
2007,01,30,02,38,-1.30
2007,01,30,02,39,-1.30
2007,01,30,02,40,-1.30
2007,01,30,02,41,-1.30
2007,01,30,02,42,-1.30
2007,01,30,02,43,-1.30
2007,01,30,02,44,-1.40
2007,01,30,02,45,-1.40
2007,01,30,02,46,-1.40
2007,01,30,02,47,-1.40
2007,01,30,02,48,-1.40
2007,01,30,02,49,-1.40
2007,01,30,02,50,-1.40
2007,01,30,02,51,-1.50
2007,01,30,02,52,-1.50
2007,01,30,02,53,-1.50
2007,01,30,02,54,-1.50
2007,01,30,02,55,-1.50
2007,01,30,02,56,-1.50
2007,01,30,02,57,-1.50
2007,01,30,02,58,-1.50
2007,01,30,02,59,-1.60
2007,01,30,03,00,-1.60
2007,01,30,03,01,-1.60
2007,01,30,03,02,-1.60
2007,01,30,03,03,-1.60
2007,01,30,03,04,-1.60
2007,01,30,03,05,-1.60
2007,01,30,03,06,-1.60
2007,01,30,03,07,-1.60
2007,01,30,03,08,-1.70
2007,01,30,03,09,-1.70
2007,01,30,03,10,-1.70
2007,01,30,03,11,-1.70
2007,01,30,03,12,-1.70
2007,01,30,03,13,-1.70
2007,01,30,03,14,-1.70
2007,01,30,03,15,-1.70
2007,01,30,03,16,-1.70
2007,01,30,03,17,-1.70
2007,01,30,03,18,-1.70
2007,01,30,03,19,-1.70
2007,01,30,03,20,-1.70
2007,01,30,03,21,-1.70
2007,01,30,03,22,-1.70
2007,01,30,03,23,-1.70
2007,01,30,03,24,-1.80
2007,01,30,03,25,-1.70
2007,01,30,03,26,-1.70
2007,01,30,03,27,-1.80
2007,01,30,03,28,-1.80
2007,01,30,03,29,-1.70
2007,01,30,03,30,-1.70
2007,01,30,03,31,-1.70
2007,01,30,03,32,-1.70
2007,01,30,03,33,-1.70
2007,01,30,03,34,-1.70
2007,01,30,03,35,-1.70
2007,01,30,03,36,-1.70
2007,01,30,03,37,-1.70
2007,01,30,03,38,-1.70
2007,01,30,03,39,-1.70
2007,01,30,03,40,-1.70
2007,01,30,03,41,-1.70
2007,01,30,03,42,-1.80
2007,01,30,03,43,-1.80
2007,01,30,03,44,-1.80
2007,01,30,03,45,-1.80
2007,01,30,03,46,-1.80
2007,01,30,03,47,-1.80
2007,01,30,03,48,-1.80
2007,01,30,03,49,-1.80
2007,01,30,03,50,-1.80
2007,01,30,03,51,-1.80
2007,01,30,03,52,-1.80
2007,01,30,03,53,-1.80
2007,01,30,03,54,-1.80
2007,01,30,03,55,-1.80
2007,01,30,03,56,-1.80
2007,01,30,03,57,-1.80
2007,01,30,03,58,-1.80
2007,01,30,03,59,-1.80
2007,01,30,04,00,-1.80
2007,01,30,04,01,-1.80
2007,01,30,04,02,-1.90
2007,01,30,04,03,-1.90
2007,01,30,04,04,-1.80
2007,01,30,04,05,-1.90
2007,01,30,04,06,-1.90
2007,01,30,04,07,-1.90
2007,01,30,04,08,-1.90
2007,01,30,04,09,-1.80
2007,01,30,04,10,-1.80
2007,01,30,04,11,-1.80
2007,01,30,04,12,-1.80
2007,01,30,04,13,-1.80
2007,01,30,04,14,-1.80
2007,01,30,04,15,-1.80
2007,01,30,04,16,-1.80
2007,01,30,04,17,-1.80
2007,01,30,04,18,-1.80
2007,01,30,04,19,-1.80
2007,01,30,04,20,-1.80
2007,01,30,04,21,-1.90
2007,01,30,04,22,-1.90
2007,01,30,04,23,-1.90
2007,01,30,04,24,-1.90
2007,01,30,04,25,-1.90
2007,01,30,04,26,-1.90
2007,01,30,04,27,-1.90
2007,01,30,04,28,-2.00
2007,01,30,04,29,-2.00
2007,01,30,04,30,-2.00
2007,01,30,04,31,-2.00
2007,01,30,04,32,-2.00
2007,01,30,04,33,-2.00
2007,01,30,04,34,-2.00
2007,01,30,04,35,-2.00
2007,01,30,04,36,-2.10
2007,01,30,04,37,-2.00
2007,01,30,04,38,-2.00
2007,01,30,04,39,-2.00
2007,01,30,04,40,-2.00
2007,01,30,04,41,-2.10
2007,01,30,04,42,-2.10
2007,01,30,04,43,-2.10
2007,01,30,04,44,-2.10
2007,01,30,04,45,-2.10
2007,01,30,04,46,-2.10
2007,01,30,04,47,-2.10
2007,01,30,04,48,-2.10
2007,01,30,04,49,-2.10
2007,01,30,04,50,-2.10
2007,01,30,04,51,-2.00
2007,01,30,04,52,-2.00
2007,01,30,04,53,-1.90
2007,01,30,04,54,-1.90
2007,01,30,04,55,-1.90
2007,01,30,04,56,-1.90
2007,01,30,04,57,-1.90
2007,01,30,04,58,-1.90
2007,01,30,04,59,-1.90
2007,01,30,05,00,-1.90
2007,01,30,05,01,-1.90
2007,01,30,05,02,-1.90
2007,01,30,05,03,-1.90
2007,01,30,05,04,-1.90
2007,01,30,05,05,-1.90
2007,01,30,05,06,-1.90
2007,01,30,05,07,-1.90
2007,01,30,05,08,-1.90
2007,01,30,05,09,-1.90
2007,01,30,05,10,-2.00
2007,01,30,05,11,-2.00
2007,01,30,05,12,-2.00
2007,01,30,05,13,-2.00
2007,01,30,05,14,-2.10
2007,01,30,05,15,-2.10
2007,01,30,05,16,-2.10
2007,01,30,05,17,-2.10
2007,01,30,05,18,-2.10
2007,01,30,05,19,-2.10
2007,01,30,05,20,-2.10
2007,01,30,05,21,-2.10
2007,01,30,05,22,-2.10
2007,01,30,05,23,-2.10
2007,01,30,05,24,-2.10
2007,01,30,05,25,-2.10
2007,01,30,05,26,-2.10
2007,01,30,05,27,-2.10
2007,01,30,05,28,-2.10
2007,01,30,05,29,-2.10
2007,01,30,05,30,-2.10
2007,01,30,05,31,-2.10
2007,01,30,05,32,-2.10
2007,01,30,05,33,-2.10
2007,01,30,05,34,-2.10
2007,01,30,05,35,-2.10
2007,01,30,05,36,-2.10
2007,01,30,05,37,-2.10
2007,01,30,05,38,-2.10
2007,01,30,05,39,-2.10
2007,01,30,05,40,-2.10
2007,01,30,05,41,-2.10
2007,01,30,05,42,-2.10
2007,01,30,05,43,-2.10
2007,01,30,05,44,-2.10
2007,01,30,05,45,-2.10
2007,01,30,05,46,-2.10
2007,01,30,05,47,-2.10
2007,01,30,05,48,-2.10
2007,01,30,05,49,-2.20
2007,01,30,05,50,-2.20
2007,01,30,05,51,-2.10
2007,01,30,05,52,-2.10
2007,01,30,05,53,-2.10
2007,01,30,05,54,-2.10
2007,01,30,05,55,-2.10
2007,01,30,05,56,-2.10
2007,01,30,05,57,-2.10
2007,01,30,05,58,-2.10
2007,01,30,05,59,-2.10
2007,01,30,06,00,-2.10
2007,01,30,06,01,-2.10
2007,01,30,06,02,-2.10
2007,01,30,06,03,-2.10
2007,01,30,06,04,-2.10
2007,01,30,06,05,-2.20
2007,01,30,06,06,-2.10
2007,01,30,06,07,-2.10
2007,01,30,06,08,-2.10
2007,01,30,06,09,-2.10
2007,01,30,06,10,-2.10
2007,01,30,06,11,-2.00
2007,01,30,06,12,-2.00
2007,01,30,06,13,-2.00
2007,01,30,06,14,-2.00
2007,01,30,06,15,-2.00
2007,01,30,06,16,-2.10
2007,01,30,06,17,-2.10
2007,01,30,06,18,-2.10
2007,01,30,06,19,-2.10
2007,01,30,06,20,-2.10
2007,01,30,06,21,-2.10
2007,01,30,06,22,-2.10
2007,01,30,06,23,-2.10
2007,01,30,06,24,-2.10
2007,01,30,06,25,-2.10
2007,01,30,06,26,-2.00
2007,01,30,06,27,-2.00
2007,01,30,06,28,-1.90
2007,01,30,06,29,-1.90
2007,01,30,06,30,-1.90
2007,01,30,06,31,-1.80
2007,01,30,06,32,-1.80
2007,01,30,06,33,-1.80
2007,01,30,06,34,-1.80
2007,01,30,06,35,-1.80
2007,01,30,06,36,-1.80
2007,01,30,06,37,-1.90
2007,01,30,06,38,-1.90
2007,01,30,06,39,-1.90
2007,01,30,06,40,-1.90
2007,01,30,06,41,-1.90
2007,01,30,06,42,-1.90
2007,01,30,06,43,-1.90
2007,01,30,06,44,-1.90
2007,01,30,06,45,-1.90
2007,01,30,06,46,-1.90
2007,01,30,06,47,-1.80
2007,01,30,06,48,-1.80
2007,01,30,06,49,-1.70
2007,01,30,06,50,-1.70
2007,01,30,06,51,-1.60
2007,01,30,06,52,-1.60
2007,01,30,06,53,-1.60
2007,01,30,06,54,-1.50
2007,01,30,06,55,-1.50
2007,01,30,06,56,-1.50
2007,01,30,06,57,-1.40
2007,01,30,06,58,-1.40
2007,01,30,06,59,-1.40
2007,01,30,07,00,-1.30
2007,01,30,07,01,-1.30
2007,01,30,07,02,-1.30
2007,01,30,07,03,-1.40
2007,01,30,07,04,-1.40
2007,01,30,07,05,-1.40
2007,01,30,07,06,-1.40
2007,01,30,07,07,-1.40
2007,01,30,07,08,-1.40
2007,01,30,07,09,-1.40
2007,01,30,07,10,-1.40
2007,01,30,07,11,-1.40
2007,01,30,07,12,-1.40
2007,01,30,07,13,-1.40
2007,01,30,07,14,-1.50
2007,01,30,07,15,-1.50
2007,01,30,07,16,-1.50
2007,01,30,07,17,-1.50
2007,01,30,07,18,-1.50
2007,01,30,07,19,-1.50
2007,01,30,07,20,-1.50
2007,01,30,07,21,-1.50
2007,01,30,07,22,-1.50
2007,01,30,07,23,-1.50
2007,01,30,07,24,-1.50
2007,01,30,07,25,-1.50
2007,01,30,07,26,-1.50
2007,01,30,07,27,-1.50
2007,01,30,07,28,-1.50
2007,01,30,07,29,-1.50
2007,01,30,07,30,-1.50
2007,01,30,07,31,-1.50
2007,01,30,07,32,-1.50
2007,01,30,07,33,-1.50
2007,01,30,07,34,-1.50
2007,01,30,07,35,-1.50
2007,01,30,07,36,-1.50
2007,01,30,07,37,-1.50
2007,01,30,07,38,-1.50
2007,01,30,07,39,-1.50
2007,01,30,07,40,-1.50
2007,01,30,07,41,-1.60
2007,01,30,07,42,-1.60
2007,01,30,07,43,-1.60
2007,01,30,07,44,-1.60
2007,01,30,07,45,-1.60
2007,01,30,07,46,-1.60
2007,01,30,07,47,-1.60
2007,01,30,07,48,-1.60
2007,01,30,07,49,-1.70
2007,01,30,07,50,-1.70
2007,01,30,07,51,-1.70
2007,01,30,07,52,-1.70
2007,01,30,07,53,-1.70
2007,01,30,07,54,-1.70
2007,01,30,07,55,-1.70
2007,01,30,07,56,-1.70
2007,01,30,07,57,-1.60
2007,01,30,07,58,-1.60
2007,01,30,07,59,-1.60
2007,01,30,08,00,-1.60
2007,01,30,08,01,-1.60
2007,01,30,08,02,-1.60
2007,01,30,08,03,-1.60
2007,01,30,08,04,-1.60
2007,01,30,08,05,-1.60
2007,01,30,08,06,-1.60
2007,01,30,08,07,-1.50
2007,01,30,08,08,-1.50
2007,01,30,08,09,-1.40
2007,01,30,08,10,-1.40
2007,01,30,08,11,-1.40
2007,01,30,08,12,-1.40
2007,01,30,08,13,-1.40
2007,01,30,08,14,-1.40
2007,01,30,08,15,-1.40
2007,01,30,08,16,-1.40
2007,01,30,08,17,-1.30
2007,01,30,08,18,-1.30
2007,01,30,08,19,-1.30
2007,01,30,08,20,-1.30
2007,01,30,08,21,-1.30
2007,01,30,08,22,-1.30
2007,01,30,08,23,-1.20
2007,01,30,08,24,-1.20
2007,01,30,08,25,-1.20
2007,01,30,08,26,-1.20
2007,01,30,08,27,-1.20
2007,01,30,08,28,-1.20
2007,01,30,08,29,-1.10
2007,01,30,08,30,-1.10
2007,01,30,08,31,-1.10
2007,01,30,08,32,-1.10
2007,01,30,08,33,-1.10
2007,01,30,08,34,-1.00
2007,01,30,08,35,-1.00
2007,01,30,08,36,-0.90
2007,01,30,08,37,-0.90
2007,01,30,08,38,-0.90
2007,01,30,08,39,-0.90
2007,01,30,08,40,-0.80
2007,01,30,08,41,-0.80
2007,01,30,08,42,-0.80
2007,01,30,08,43,-0.80
2007,01,30,08,44,-0.70
2007,01,30,08,45,-0.70
2007,01,30,08,46,-0.60
2007,01,30,08,47,-0.60
2007,01,30,08,48,-0.50
2007,01,30,08,49,-0.40
2007,01,30,08,50,-0.40
2007,01,30,08,51,-0.30
2007,01,30,08,52,-0.30
2007,01,30,08,53,-0.20
2007,01,30,08,54,-0.20
2007,01,30,08,55,-0.20
2007,01,30,08,56,-0.20
2007,01,30,08,57,-0.20
2007,01,30,08,58,-0.20
2007,01,30,08,59,-0.20
2007,01,30,09,00,-0.20
2007,01,30,09,01,-0.20
2007,01,30,09,02,-0.20
2007,01,30,09,03,-0.20
2007,01,30,09,04,-0.10
2007,01,30,09,05,-0.10
2007,01,30,09,06,0.00
2007,01,30,09,07,0.10
2007,01,30,09,08,0.10
2007,01,30,09,09,0.20
2007,01,30,09,10,0.30
2007,01,30,09,11,0.40
2007,01,30,09,12,0.40
2007,01,30,09,13,0.50
2007,01,30,09,14,0.50
2007,01,30,09,15,0.60
2007,01,30,09,16,0.60
2007,01,30,09,17,0.70
2007,01,30,09,18,0.70
2007,01,30,09,19,0.70
2007,01,30,09,20,0.70
2007,01,30,09,21,0.80
2007,01,30,09,22,0.80
2007,01,30,09,23,0.80
2007,01,30,09,24,0.80
2007,01,30,09,25,0.90
2007,01,30,09,26,1.00
2007,01,30,09,27,1.10
2007,01,30,09,28,1.20
2007,01,30,09,29,1.30
2007,01,30,09,30,1.40
2007,01,30,09,31,1.60
2007,01,30,09,32,1.80
2007,01,30,09,33,2.00
2007,01,30,09,34,2.30
2007,01,30,09,35,2.50
2007,01,30,09,36,2.60
2007,01,30,09,37,2.80
2007,01,30,09,38,2.90
2007,01,30,09,39,3.00
2007,01,30,09,40,3.10
2007,01,30,09,41,3.20
2007,01,30,09,42,3.20
2007,01,30,09,43,3.20
2007,01,30,09,44,3.20
2007,01,30,09,45,3.20
2007,01,30,09,46,3.20
2007,01,30,09,47,3.20
2007,01,30,09,48,3.20
2007,01,30,09,49,3.20
2007,01,30,09,50,3.20
2007,01,30,09,51,3.20
2007,01,30,09,52,3.20
2007,01,30,09,53,3.20
2007,01,30,09,54,3.20
2007,01,30,09,55,3.20
2007,01,30,09,56,3.20
2007,01,30,09,57,3.20
2007,01,30,09,58,3.20
2007,01,30,09,59,3.30
2007,01,30,10,00,3.30
2007,01,30,10,01,3.40
2007,01,30,10,02,3.60
2007,01,30,10,03,3.80
2007,01,30,10,04,4.00
2007,01,30,10,05,4.10
2007,01,30,10,06,4.30
2007,01,30,10,07,4.40
2007,01,30,10,08,4.40
2007,01,30,10,09,4.50
2007,01,30,10,10,4.60
2007,01,30,10,11,4.60
2007,01,30,10,12,4.70
2007,01,30,10,13,4.70
2007,01,30,10,14,4.70
2007,01,30,10,15,4.80
2007,01,30,10,16,4.80
2007,01,30,10,17,4.80
2007,01,30,10,18,4.90
2007,01,30,10,19,4.90
2007,01,30,10,20,4.90
2007,01,30,10,21,4.90
2007,01,30,10,22,5.00
2007,01,30,10,23,5.10
2007,01,30,10,24,5.10
2007,01,30,10,25,5.20
2007,01,30,10,26,5.20
2007,01,30,10,27,5.30
2007,01,30,10,28,5.40
2007,01,30,10,29,5.40
2007,01,30,10,30,5.50
2007,01,30,10,31,5.60
2007,01,30,10,32,5.60
2007,01,30,10,33,5.70
2007,01,30,10,34,5.70
2007,01,30,10,35,5.70
2007,01,30,10,36,5.70
2007,01,30,10,37,5.80
2007,01,30,10,38,5.80
2007,01,30,10,39,5.80
2007,01,30,10,40,5.80
2007,01,30,10,41,5.90
2007,01,30,10,42,5.90
2007,01,30,10,43,6.00
2007,01,30,10,44,6.00
2007,01,30,10,45,6.10
2007,01,30,10,46,6.20
2007,01,30,10,47,6.20
2007,01,30,10,48,6.30
2007,01,30,10,49,6.30
2007,01,30,10,50,6.40
2007,01,30,10,51,6.40
2007,01,30,10,52,6.50
2007,01,30,10,53,6.60
2007,01,30,10,54,6.60
2007,01,30,10,55,6.60
2007,01,30,10,56,6.70
2007,01,30,10,57,6.80
2007,01,30,10,58,6.80
2007,01,30,10,59,6.90
2007,01,30,11,00,6.90
2007,01,30,11,01,7.00
2007,01,30,11,02,7.00
2007,01,30,11,03,7.10
2007,01,30,11,04,7.10
2007,01,30,11,05,7.10
2007,01,30,11,06,7.10
2007,01,30,11,07,7.20
2007,01,30,11,08,7.20
2007,01,30,11,09,7.20
2007,01,30,11,10,7.20
2007,01,30,11,11,7.20
2007,01,30,11,12,7.20
2007,01,30,11,13,7.20
2007,01,30,11,14,7.30
2007,01,30,11,15,7.30
2007,01,30,11,16,7.30
2007,01,30,11,17,7.30
2007,01,30,11,18,7.30
2007,01,30,11,19,7.20
2007,01,30,11,20,7.20
2007,01,30,11,21,7.20
2007,01,30,11,22,7.20
2007,01,30,11,23,7.20
2007,01,30,11,24,7.30
2007,01,30,11,25,7.30
2007,01,30,11,26,7.30
2007,01,30,11,27,7.30
2007,01,30,11,28,7.30
2007,01,30,11,29,7.20
2007,01,30,11,30,7.20
2007,01,30,11,31,7.10
2007,01,30,11,32,7.00
2007,01,30,11,33,6.90
2007,01,30,11,34,6.90
2007,01,30,11,35,6.80
2007,01,30,11,36,6.80
2007,01,30,11,37,6.80
2007,01,30,11,38,6.80
2007,01,30,11,39,6.80
2007,01,30,11,40,6.80
2007,01,30,11,41,6.80
2007,01,30,11,42,6.80
2007,01,30,11,43,6.90
2007,01,30,11,44,6.90
2007,01,30,11,45,7.00
2007,01,30,11,46,7.00
2007,01,30,11,47,7.10
2007,01,30,11,48,7.10
2007,01,30,11,49,7.20
2007,01,30,11,50,7.20
2007,01,30,11,51,7.30
2007,01,30,11,52,7.30
2007,01,30,11,53,7.40
2007,01,30,11,54,7.50
2007,01,30,11,55,7.60
2007,01,30,11,56,7.70
2007,01,30,11,57,7.80
2007,01,30,11,58,7.80
2007,01,30,11,59,7.90
2007,01,30,12,00,8.00
2007,01,30,12,01,8.10
2007,01,30,12,02,8.10
2007,01,30,12,03,8.20
2007,01,30,12,04,8.20
2007,01,30,12,05,8.20
2007,01,30,12,06,8.20
2007,01,30,12,07,8.30
2007,01,30,12,08,8.30
2007,01,30,12,09,8.30
2007,01,30,12,10,8.30
2007,01,30,12,11,8.30
2007,01,30,12,12,8.30
2007,01,30,12,13,8.30
2007,01,30,12,14,8.40
2007,01,30,12,15,8.40
2007,01,30,12,16,8.40
2007,01,30,12,17,8.50
2007,01,30,12,18,8.50
2007,01,30,12,19,8.60
2007,01,30,12,20,8.70
2007,01,30,12,21,8.70
2007,01,30,12,22,8.80
2007,01,30,12,23,8.80
2007,01,30,12,24,8.70
2007,01,30,12,25,8.70
2007,01,30,12,26,8.70
2007,01,30,12,27,8.70
2007,01,30,12,28,8.70
2007,01,30,12,29,8.70
2007,01,30,12,30,8.70
2007,01,30,12,31,8.70
2007,01,30,12,32,8.70
2007,01,30,12,33,8.80
2007,01,30,12,34,8.90
2007,01,30,12,35,8.90
2007,01,30,12,36,9.00
2007,01,30,12,37,9.00
2007,01,30,12,38,9.10
2007,01,30,12,39,9.20
2007,01,30,12,40,9.20
2007,01,30,12,41,9.30
2007,01,30,12,42,9.30
2007,01,30,12,43,9.30
2007,01,30,12,44,9.40
2007,01,30,12,45,9.40
2007,01,30,12,46,9.50
2007,01,30,12,47,9.50
2007,01,30,12,48,9.50
2007,01,30,12,49,9.60
2007,01,30,12,50,9.60
2007,01,30,12,51,9.60
2007,01,30,12,52,9.60
2007,01,30,12,53,9.70
2007,01,30,12,54,9.70
2007,01,30,12,55,9.70
2007,01,30,12,56,9.80
2007,01,30,12,57,9.80
2007,01,30,12,58,9.90
2007,01,30,12,59,9.90
2007,01,30,13,00,10.00
2007,01,30,13,01,10.00
2007,01,30,13,02,10.00
2007,01,30,13,03,10.00
2007,01,30,13,04,10.00
2007,01,30,13,05,10.10
2007,01,30,13,06,10.10
2007,01,30,13,07,10.20
2007,01,30,13,08,10.20
2007,01,30,13,09,10.20
2007,01,30,13,10,10.20
2007,01,30,13,11,10.20
2007,01,30,13,12,10.20
2007,01,30,13,13,10.20
2007,01,30,13,14,10.20
2007,01,30,13,15,10.20
2007,01,30,13,16,10.30
2007,01,30,13,17,10.30
2007,01,30,13,18,10.30
2007,01,30,13,19,10.30
2007,01,30,13,20,10.30
2007,01,30,13,21,10.30
2007,01,30,13,22,10.30
2007,01,30,13,23,10.30
2007,01,30,13,24,10.30
2007,01,30,13,25,10.30
2007,01,30,13,26,10.30
2007,01,30,13,27,10.30
2007,01,30,13,28,10.40
2007,01,30,13,29,10.40
2007,01,30,13,30,10.40
2007,01,30,13,31,10.50
2007,01,30,13,32,10.50
2007,01,30,13,33,10.60
2007,01,30,13,34,10.50
2007,01,30,13,35,10.50
2007,01,30,13,36,10.50
2007,01,30,13,37,10.50
2007,01,30,13,38,10.60
2007,01,30,13,39,10.50
2007,01,30,13,40,10.50
2007,01,30,13,41,10.50
2007,01,30,13,42,10.50
2007,01,30,13,43,10.50
2007,01,30,13,44,10.50
2007,01,30,13,45,10.50
2007,01,30,13,46,10.50
2007,01,30,13,47,10.60
2007,01,30,13,48,10.50
2007,01,30,13,49,10.40
2007,01,30,13,50,10.40
2007,01,30,13,51,10.40
2007,01,30,13,52,10.50
2007,01,30,13,53,10.50
2007,01,30,13,54,10.60
2007,01,30,13,55,10.60
2007,01,30,13,56,10.70
2007,01,30,13,57,10.70
2007,01,30,13,58,10.80
2007,01,30,13,59,10.70
2007,01,30,14,00,10.70
2007,01,30,14,01,10.70
2007,01,30,14,02,10.70
2007,01,30,14,03,10.70
2007,01,30,14,04,10.70
2007,01,30,14,05,10.80
2007,01,30,14,06,10.80
2007,01,30,14,07,10.80
2007,01,30,14,08,10.80
2007,01,30,14,09,10.80
2007,01,30,14,10,10.80
2007,01,30,14,11,10.70
2007,01,30,14,12,10.70
2007,01,30,14,13,10.60
2007,01,30,14,14,10.50
2007,01,30,14,15,10.40
2007,01,30,14,16,10.40
2007,01,30,14,17,10.40
2007,01,30,14,18,10.40
2007,01,30,14,19,10.40
2007,01,30,14,20,10.20
2007,01,30,14,21,10.00
2007,01,30,14,22,9.90
2007,01,30,14,23,9.80
2007,01,30,14,24,9.60
2007,01,30,14,25,9.60
2007,01,30,14,26,9.50
2007,01,30,14,27,9.40
2007,01,30,14,28,9.40
2007,01,30,14,29,9.40
2007,01,30,14,30,9.30
2007,01,30,14,31,9.30
2007,01,30,14,32,9.30
2007,01,30,14,33,9.20
2007,01,30,14,34,9.20
2007,01,30,14,35,9.10
2007,01,30,14,36,9.10
2007,01,30,14,37,9.10
2007,01,30,14,38,9.00
2007,01,30,14,39,9.00
2007,01,30,14,40,8.90
2007,01,30,14,41,8.80
2007,01,30,14,42,8.80
2007,01,30,14,43,8.70
2007,01,30,14,44,8.60
2007,01,30,14,45,8.60
2007,01,30,14,46,8.60
2007,01,30,14,47,8.60
2007,01,30,14,48,8.60
2007,01,30,14,49,8.60
2007,01,30,14,50,8.60
2007,01,30,14,51,8.60
2007,01,30,14,52,8.50
2007,01,30,14,53,8.50
2007,01,30,14,54,8.50
2007,01,30,14,55,8.40
2007,01,30,14,56,8.40
2007,01,30,14,57,8.40
2007,01,30,14,58,8.40
2007,01,30,14,59,8.30
2007,01,30,15,00,8.30
2007,01,30,15,01,8.30
2007,01,30,15,02,8.30
2007,01,30,15,03,8.30
2007,01,30,15,04,8.30
2007,01,30,15,05,8.30
2007,01,30,15,06,8.20
2007,01,30,15,07,8.20
2007,01,30,15,08,8.00
2007,01,30,15,09,7.90
2007,01,30,15,10,7.90
2007,01,30,15,11,7.80
2007,01,30,15,12,7.80
2007,01,30,15,13,7.70
2007,01,30,15,14,7.70
2007,01,30,15,15,7.70
2007,01,30,15,16,7.70
2007,01,30,15,17,7.70
2007,01,30,15,18,7.60
2007,01,30,15,19,7.60
2007,01,30,15,20,7.70
2007,01,30,15,21,7.70
2007,01,30,15,22,7.70
2007,01,30,15,23,7.70
2007,01,30,15,24,7.70
2007,01,30,15,25,7.80
2007,01,30,15,26,7.80
2007,01,30,15,27,7.70
2007,01,30,15,28,7.80
2007,01,30,15,29,7.80
2007,01,30,15,30,7.90
2007,01,30,15,31,7.90
2007,01,30,15,32,8.00
2007,01,30,15,33,8.10
2007,01,30,15,34,8.20
2007,01,30,15,35,8.30
2007,01,30,15,36,8.30
2007,01,30,15,37,8.30
2007,01,30,15,38,8.30
2007,01,30,15,39,8.20
2007,01,30,15,40,8.20
2007,01,30,15,41,8.10
2007,01,30,15,42,8.10
2007,01,30,15,43,8.00
2007,01,30,15,44,8.00
2007,01,30,15,45,7.90
2007,01,30,15,46,7.90
2007,01,30,15,47,8.00
2007,01,30,15,48,8.10
2007,01,30,15,49,8.10
2007,01,30,15,50,8.20
2007,01,30,15,51,8.30
2007,01,30,15,52,8.30
2007,01,30,15,53,8.30
2007,01,30,15,54,8.30
2007,01,30,15,55,8.20
2007,01,30,15,56,8.20
2007,01,30,15,57,8.20
2007,01,30,15,58,8.10
2007,01,30,15,59,8.00
2007,01,30,16,00,8.00
2007,01,30,16,01,8.00
2007,01,30,16,02,7.90
2007,01,30,16,03,7.90
2007,01,30,16,04,7.80
2007,01,30,16,05,7.80
2007,01,30,16,06,7.70
2007,01,30,16,07,7.60
2007,01,30,16,08,7.60
2007,01,30,16,09,7.50
2007,01,30,16,10,7.50
2007,01,30,16,11,7.40
2007,01,30,16,12,7.40
2007,01,30,16,13,7.40
2007,01,30,16,14,7.30
2007,01,30,16,15,7.30
2007,01,30,16,16,7.30
2007,01,30,16,17,7.30
2007,01,30,16,18,7.30
2007,01,30,16,19,7.30
2007,01,30,16,20,7.20
2007,01,30,16,21,7.20
2007,01,30,16,22,7.20
2007,01,30,16,23,7.20
2007,01,30,16,24,7.20
2007,01,30,16,25,7.20
2007,01,30,16,26,7.10
2007,01,30,16,27,7.10
2007,01,30,16,28,7.10
2007,01,30,16,29,7.10
2007,01,30,16,30,7.00
2007,01,30,16,31,7.00
2007,01,30,16,32,6.90
2007,01,30,16,33,6.90
2007,01,30,16,34,6.90
2007,01,30,16,35,6.80
2007,01,30,16,36,6.80
2007,01,30,16,37,6.80
2007,01,30,16,38,6.70
2007,01,30,16,39,6.70
2007,01,30,16,40,6.70
2007,01,30,16,41,6.60
2007,01,30,16,42,6.60
2007,01,30,16,43,6.50
2007,01,30,16,44,6.50
2007,01,30,16,45,6.50
2007,01,30,16,46,6.40
2007,01,30,16,47,6.40
2007,01,30,16,48,6.40
2007,01,30,16,49,6.30
2007,01,30,16,50,6.30
2007,01,30,16,51,6.30
2007,01,30,16,52,6.20
2007,01,30,16,53,6.20
2007,01,30,16,54,6.20
2007,01,30,16,55,6.10
2007,01,30,16,56,6.10
2007,01,30,16,57,6.00
2007,01,30,16,58,6.00
2007,01,30,16,59,5.90
2007,01,30,17,00,5.90
2007,01,30,17,01,5.80
2007,01,30,17,02,5.80
2007,01,30,17,03,5.70
2007,01,30,17,04,5.70
2007,01,30,17,05,5.60
2007,01,30,17,06,5.60
2007,01,30,17,07,5.60
2007,01,30,17,08,5.50
2007,01,30,17,09,5.40
2007,01,30,17,10,5.40
2007,01,30,17,11,5.30
2007,01,30,17,12,5.30
2007,01,30,17,13,5.30
2007,01,30,17,14,5.20
2007,01,30,17,15,5.20
2007,01,30,17,16,5.20
2007,01,30,17,17,5.10
2007,01,30,17,18,5.10
2007,01,30,17,19,5.10
2007,01,30,17,20,5.00
2007,01,30,17,21,5.00
2007,01,30,17,22,4.90
2007,01,30,17,23,4.90
2007,01,30,17,24,4.80
2007,01,30,17,25,4.80
2007,01,30,17,26,4.80
2007,01,30,17,27,4.70
2007,01,30,17,28,4.70
2007,01,30,17,29,4.70
2007,01,30,17,30,4.60
2007,01,30,17,31,4.60
2007,01,30,17,32,4.60
2007,01,30,17,33,4.50
2007,01,30,17,34,4.40
2007,01,30,17,35,4.40
2007,01,30,17,36,4.30
2007,01,30,17,37,4.30
2007,01,30,17,38,4.30
2007,01,30,17,39,4.30
2007,01,30,17,40,4.30
2007,01,30,17,41,4.20
2007,01,30,17,42,4.20
2007,01,30,17,43,4.20
2007,01,30,17,44,4.20
2007,01,30,17,45,4.20
2007,01,30,17,46,4.20
2007,01,30,17,47,4.20
2007,01,30,17,48,4.10
2007,01,30,17,49,4.10
2007,01,30,17,50,4.10
2007,01,30,17,51,4.10
2007,01,30,17,52,4.10
2007,01,30,17,53,4.10
2007,01,30,17,54,4.10
2007,01,30,17,55,4.10
2007,01,30,17,56,4.10
2007,01,30,17,57,4.10
2007,01,30,17,58,4.00
2007,01,30,17,59,4.00
2007,01,30,18,00,3.90
2007,01,30,18,01,3.90
2007,01,30,18,02,3.90
2007,01,30,18,03,3.80
2007,01,30,18,04,3.80
2007,01,30,18,05,3.80
2007,01,30,18,06,3.70
2007,01,30,18,07,3.60
2007,01,30,18,08,3.60
2007,01,30,18,09,3.50
2007,01,30,18,10,3.50
2007,01,30,18,11,3.50
2007,01,30,18,12,3.40
2007,01,30,18,13,3.40
2007,01,30,18,14,3.30
2007,01,30,18,15,3.30
2007,01,30,18,16,3.30
2007,01,30,18,17,3.20
2007,01,30,18,18,3.20
2007,01,30,18,19,3.20
2007,01,30,18,20,3.20
2007,01,30,18,21,3.10
2007,01,30,18,22,3.10
2007,01,30,18,23,3.10
2007,01,30,18,24,3.00
2007,01,30,18,25,3.00
2007,01,30,18,26,3.00
2007,01,30,18,27,2.90
2007,01,30,18,28,2.90